Location: Unspecified
(0.0000°N, 0.0000°E)
Time: 06:30:55
(UTC+00:00)

Courier 1B Rocket - Pass Details

Date: 27 November 2019
Orbit: 920 x 1202 km, 28.2° (Epoch: 10 December)

Event Time Altitude Azimuth Distance (km) Brightness Sun altitude
Rises 06:12:45 0° 225° (SW) 3,730 7.8 5.9°
Reaches altitude 10° 06:15:45 10° 216° (SW) 2,736 7.2 6.6°
Maximum altitude 06:21:39 35° 152° (SSE) 1,486 6.8 8.0°
Drops below altitude 10° 06:27:18 10° 88° (E) 2,617 8.8 9.3°
Sets 06:30:06 0° 79° (E) 3,547 9.0 9.9°
